logo
Search for airport 
image banner adimage banner adimage banner ad
image banner ad

EHKA - L4-Pn (Oil Platform)

Located in , Netherlands

ICAO - , IATA -

Data provided by Airmate  

General information

Coordinates: N53°49'24" E4°2'59"
Elevation is feet MSL.
 
View others Airports in Noord-Holland

Operational data

Special qualification required
Current time UTC:
Current local time:
Weather at : EHMG - L9-Ff-1 (Oil Platform) ( 64 km )
METAR: EHMG 162025Z AUTO 30006KT 240V350 9999 DZRA FEW003 SCT006 BKN008 15/14 Q1010
View NOTAMs / SUP AIP / TFR affecting this airport [VIEW]
Communications frequencies: [VIEW]

Runways:

Airport contact information

Address: Netherlands

Satellite view of EHKA